map of YEI home
YEI - Airport
Location
City:  Bursa, Bursa, Turkey
Name:Yenisehir
ICAO:LTBR
IATA:YEI

Details
Type:Airport (Aerodrome, Airfield)
Use:Public/Civil, Military
Latitude:4015'19"N (40.255208)
Longitude:2933'45"E (29.562569)
Datum:WGS 1984
Elevation:764 ft (233 m)
Variation:5.34E (WMM2015 magnetic declination)
0.10 annual change
Runways:2
Longest:9818 × 148 ft (2993 × 45 m), paved

Time
Time Zone:UTC+3
Local Time:

Weather
METAR:LTBR 241350Z 27007KT 210V350 CAVOK 19/09 Q1019 BECMG TL1450 35012KT RMK RWY07 25014KT
TAF:LTBR 232240Z 2400/2424 VRB02KT CAVOK PROB40 2403/2406 3500 BR
BECMG 2410/2412 01012KT FEW035 BKN180
BECMG 2416/2418 VRB02KT CAVOK=

Related Locations
Nearby:
Farthest:RVV: 11291 mi / 18170 km
Raivavae, Tubuai Islands, Austral Islands, PF

Find:

   beyond  
but within

Other Information
Maps:
NOTAMs:
Links:
Sources:

  
flag of Turkey   

Sectional Chart

Flight Planning
at skyvector.com

Satellite Image

Google Maps Satellite view

 

Copyright © 2004-2017 Karl L. Swartz. All rights reserved.
The Great Circle Mapper name and logo are trademarks of the Great Circle Mapper.
All other trademarks mentioned herein belong to their respective owners.
Please see credits for attibutions and further copyright information.

  Follow gcmap on Facebook Follow gcmap on Twitter Follow gcmap on Google+ GCmap on LinkedIn

hCard Microformat

Geo Microformat